CZ-2D DEB, 44619

Orbit data source: Space-Track

CZ-2D DEB, 44619 is space debris in SSO originally from a launch on Sat, 02 Jun 2018 UTC launched from the Jiuquan Satellite Launch Center, China (JSC). Debris objects in space refer to the collection of defunct objects orbiting the Earth. Examples of debris include non-operational satellites, rocket bodies, and fragments generated from explosions, collisions, or faulty payload assembly.

Loading next visibility...
Identifier
44619, 2018-048F
Orbit
SSO
Last TLE update
10 hours ago
Origin
Manufacturer
CALT
Mission
Spacecraft
Bus & Motor
Unknown
Mass
1 kg wet, 1 kg dry
Launch date (UTC)
2018-06-02 (7 years ago)
Launch vehicle
Unknown
Launch site
Jiuquan Satellite Launch Center, China (JSC)
Object type
Payload
Rocket body
Debris
Shape & HBR
Cone, 0.2 m
Radar Cross Section
0.025 m², Small (<0.1 m²)

Expand to show TLE details & history

TLE from 10 hours ago
0 CZ-2D DEB
1 44619U 18048F   25183.43706736  .00004329  00000-0  36300-3 0  9993
2 44619  98.2941   1.7575 0011658 280.9629  79.0280 14.98923940379162
Epoch: 2025-07-02T10:29Z
TLE epoch observation values (Epoch: 2025-07-02T10:29:22.619Z)
Latitude
-0.00009°
Longitude
-76.30492°
Altitude
571.722 km
Speed
7.576 km/s
True Right ascension
00h 07m 01s
True Declination
0° 00' 00"
Sunlit
Object was in daylight at epoch
Visualization orbit readout
Latitude
47.00664°
Longitude
113.09365°
Altitude
584.304 km
Speed
7.569 km/s
Apparent Right ascension
16h 40m 28s
Apparent Declination
10° 55' 55"
Sunlit
Object is in daylight
Visualization observer readout
Local Sidereal Time
08:25:36
Azimuth
58.772° ENE
Elevation
-17.237°
Doppler factor
1
Orbital elements
Apogee altitude
575.351 km
Perigee altitude
559.157 km
Semi-major axis
6,945.391 km
Eccentricity
0.00117
Inclination
98.2941°
RAAN
1.7575°
Arg. of periapsis
280.9629°
True anomaly
Unknown
Mean anomaly
79.028°
Eccentric anomaly
Unknown
Mean motion
3.74971 °/min
Orbital period
96.01 mins
BSTAR
0.000363
Loading maneuver chart data...
Loading SW <> Apogee altitude chart data...
Loading historical data...
Loading historical data...
Loading historical data...
Loading historical data...
Loading historical data...
Loading historical data...
Loading historical data...
Other satellites on launch #48 in the year 2018 (2018-06-02 UTC)

CZ-2D DEB Visibility forecast

Observer location: undefined°, undefined°

Span
Click to sort rows by Start time (UTC) header in descending order
Start Az.
Max El. time (UTC)
Max El. Az.
Max El.
End time (UTC)
End Az.
5 mins2025-07-02 23:53:31.806Z51.472° ENE2025-07-02 23:56:31.806Z102.178° ESE18.041°2025-07-02 23:58:31.806Z135.027° SSE
5 mins2025-07-03 01:29:31.806Z332.208° NNW2025-07-03 01:31:31.806Z281.528° WNW27.091°2025-07-03 01:34:31.806Z229.86° WSW
6 mins2025-07-03 12:15:31.806Z192.477° SSW2025-07-03 12:17:31.806Z237.344° WSW36.143°2025-07-03 12:21:31.806Z334.085° NNW
|